[[{"header":{"parameterUnit":"m.s-1","parameterCategory":1,"la1":30.2991,"la2":30.254,"lo1":-89.0895,"lo2":-89.0444,"dy":0.0017,"dx":0.0017,"nx":28,"ny":28,"refTime":"2025-12-30T03:00:00:Z","depth":0,"parameterNumber":2,"parameterNumberName":"U-component_of_WINDS"},"data":[0,0,0,0,0,0,0,0,0,0,0,0,0,0,0,0,0,0,0,0,0,0,0,0,0,0,0,0,0,0,0,0,0,0,0,0,0,0,0,0,0,0,0,0,0,0,0,0,0,0,0,0,0,0,0,0,0,0,1.1806,1.1805,0,1.1775,1.1774,1.1774,1.1767,1.1767,1.1767,1.1767,1.1732,1.1731,1.173,0,0,0,0,0,0,0,0,0,0,0,0,0,1.1857,1.1856,1.1806,1.1805,1.1805,1.1775,1.1774,1.1774,1.1767,1.1767,1.1767,1.1768,1.1732,1.1731,1.173,0,0,0,0,0,0,0,0,0,0,0,0,0,1.1831,1.1855,1.1806,1.1798,1.1797,1.1775,1.1774,1.1774,1.1767,1.1767,1.1767,1.1768,1.1733,1.1731,1.173,1.1712,0,0,1.1724,1.1724,0,0,0,0,0,0,0,0,1.1832,1.1829,1.1799,1.1798,1.1797,1.1775,1.1779,1.1753,1.1767,1.1778,1.1767,1.1768,1.1746,1.1743,1.1736,1.171,1.1709,1.1724,1.1723,1.1722,1.1722,0,0,0,0,0,0,0,1.1834,1.183,1.1793,1.1799,1.1798,1.1795,1.1792,1.1774,1.176,1.1777,1.1777,1.1773,1.1745,1.1738,1.1736,1.1708,1.1724,1.1723,1.1722,1.1721,1.1667,1.1667,0,0,0,0,0,0,1.1838,1.1832,1.1794,1.1792,1.1816,1.1794,1.179,1.1782,1.1761,1.1758,1.1773,1.1773,1.1741,1.1738,1.1734,1.1713,1.1722,1.1721,1.172,1.1668,1.1667,1.1667,0,0,0,0,0,0,1.1839,1.1834,1.1796,1.1812,1.1807,1.1793,1.1783,1.1781,1.1774,1.1757,1.1755,1.1768,1.1741,1.1737,1.1718,1.1711,1.172,1.1718,1.1668,1.1668,1.1667,1.1669,0,0,0,0,0,0,1.184,1.1835,1.1828,1.1812,1.1806,1.1781,1.1783,1.178,1.1771,1.1771,1.1752,1.1749,1.1741,1.1721,1.1716,1.1709,1.1717,1.1669,1.1668,1.1667,1.167,1.1669,1.1668,0,0,0,0,0,1.1842,1.1829,1.1828,1.1824,1.1798,1.178,1.1777,1.1768,1.1771,1.1764,1.1754,1.175,1.1713,1.1719,1.1714,1.1706,1.1669,1.1668,1.1667,1.167,1.1669,1.1668,0,0,0,0,0,0,1.1844,1.1827,1.1825,1.1807,1.1796,1.1779,1.177,1.1767,1.1753,1.1754,1.1743,1.1739,1.1721,1.1712,1.1718,1.1689,1.1691,1.1689,1.1695,1.1694,1.1693,1.1695,1.1716,0,0,0,0,0,1.1842,1.183,1.1816,1.1801,1.1796,1.1784,1.1776,1.1771,1.1757,1.1752,1.174,1.1727,1.1712,1.1703,1.1688,1.1669,1.1665,1.1661,1.1661,1.166,1.1658,1.1648,1.1646,1.1664,1.1664,1.1664,0,0,1.1838,1.1828,1.1821,1.1801,1.1792,1.1779,1.178,1.1766,1.1756,1.1749,1.1732,1.1723,1.1707,1.1688,1.1679,1.168,1.1652,1.1659,1.1659,1.1657,1.1647,1.1645,1.1643,1.1663,1.1664,1.1664,0,0,1.1825,1.1816,1.1803,1.1794,1.178,1.1772,1.177,1.1754,1.1748,1.1731,1.1726,1.1714,1.1689,1.1678,1.1669,1.1654,1.165,1.1649,1.1645,1.1635,1.1633,1.1632,1.1626,1.1624,1.1648,1.1648,1.1648,0,1.1822,1.1803,1.1796,1.1783,1.1775,1.1771,1.1757,1.1748,1.1729,1.1723,1.1725,1.1695,1.1684,1.1662,1.1659,1.1652,1.1648,1.1651,1.1634,1.1633,1.1631,1.1626,1.1624,1.1648,1.1648,1.1648,1.1648,0,1.18,1.1787,1.1778,1.1762,1.1753,1.1739,1.173,1.1721,1.1718,1.171,1.1692,1.1679,1.1663,1.1658,1.1653,1.1636,1.1637,1.1637,1.1639,1.163,1.1625,1.1622,1.1648,1.1648,1.1648,1.1648,0,0,1.1784,1.1767,1.1763,1.1756,1.1741,1.1731,1.1718,1.1703,1.1695,1.1683,1.1671,1.1652,1.1652,1.1642,1.1636,1.1628,1.1616,1.1628,1.1628,1.1626,1.1597,1.1597,1.1595,1.1614,1.1614,1.1614,1.1598,0,1.1768,1.1746,1.174,1.172,1.1708,1.1705,1.1693,1.1683,1.1676,1.1664,1.1656,1.1642,1.1644,1.1638,1.1629,1.162,1.161,1.1621,1.1602,1.1602,1.1606,1.1592,1.1591,1.1577,1.1596,1.1596,1.1596,0,1.1746,1.1736,1.1715,1.1703,1.1698,1.1687,1.1674,1.1663,1.1651,1.1647,1.1637,1.1633,1.1618,1.1622,1.1602,1.161,1.1602,1.1597,1.1596,1.1593,1.1597,1.1588,1.1572,1.157,1.1592,1.1592,1.1593,0,1.1737,1.1717,1.1703,1.1697,1.1682,1.1675,1.1669,1.1657,1.1649,1.1637,1.1632,1.1618,1.161,1.1599,1.1591,1.1595,1.1572,1.1575,1.1567,1.1567,1.1561,1.1562,1.1544,1.1558,1.1558,1.1558,1.1558,0,1.1719,1.1707,1.1698,1.1689,1.1675,1.1669,1.1655,1.1648,1.1638,1.1627,1.1624,1.1613,1.1604,1.1592,1.1586,1.157,1.1567,1.1562,1.1561,1.1562,1.1563,1.1556,1.1557,1.1558,1.1558,1.1558,1.1558,0,1.1706,1.17,1.1683,1.1672,1.1669,1.1659,1.1648,1.1639,1.1633,1.1619,1.1616,1.1606,1.1592,1.1584,1.1566,1.1561,1.1544,1.1543,1.1549,1.1548,1.154,1.154,1.1516,1.1513,1.153,1.153,1.153,0,1.1694,1.1685,1.1673,1.1666,1.166,1.1649,1.1641,1.1635,1.1627,1.1614,1.1606,1.1593,1.1581,1.1559,1.155,1.1537,1.1535,1.1527,1.1532,1.1535,1.1534,1.1534,1.1533,1.1526,1.1526,1.1526,1.1526,0,1.1675,1.1673,1.1662,1.1651,1.1643,1.1633,1.1624,1.1618,1.1611,1.1602,1.1589,1.158,1.1563,1.1549,1.1536,1.1528,1.1525,1.1525,1.1522,1.1523,1.1526,1.1524,1.1545,1.1524,1.1525,1.1525,1.1525,1.1525,1.1661,1.1653,1.1644,1.1632,1.1625,1.1617,1.1608,1.1602,1.1591,1.1578,1.1575,1.1561,1.155,1.1532,1.1524,1.1513,1.1514,1.151,1.1509,1.1508,1.1507,1.1529,1.151,1.151,1.151,1.151,1.151,0,1.1641,1.1635,1.1625,1.1613,1.1605,1.1605,1.1595,1.1587,1.1576,1.1567,1.1556,1.1541,1.1529,1.1519,1.1506,1.1499,1.1498,1.1496,1.1496,1.1494,1.1507,1.1511,1.1497,1.1497,1.1497,1.1497,1.1497,1.1497,1.1629,1.1615,1.1613,1.1595,1.159,1.1577,1.1571,1.1564,1.1557,1.1541,1.1531,1.1525,1.1516,1.1503,1.1491,1.1489,1.1484,1.1482,1.1479,1.1492,1.1493,1.1494,1.1497,1.1481,1.1481,1.1467,1.1467,1.1467]},{"header":{"parameterUnit":"m.s-1","parameterCategory":1,"la1":30.2991,"la2":30.254,"lo1":-89.0895,"lo2":-89.0444,"dy":0.0017,"dx":0.0017,"nx":28,"ny":28,"refTime":"2025-12-30T03:00:00:Z","depth":0,"parameterNumber":3,"parameterNumberName":"V-component_of_WINDS"},"data":[0,0,0,0,0,0,0,0,0,0,0,0,0,0,0,0,0,0,0,0,0,0,0,0,0,0,0,0,0,0,0,0,0,0,0,0,0,0,0,0,0,0,0,0,0,0,0,0,0,0,0,0,0,0,0,0,0,0,-7.8992,-7.8994,0,-7.9156,-7.9157,-7.9159,-7.9066,-7.9061,-7.9057,-7.9052,-7.9215,-7.9223,-7.9232,0,0,0,0,0,0,0,0,0,0,0,0,0,-7.8594,-7.8602,-7.8992,-7.8994,-7.8996,-7.9155,-7.9157,-7.916,-7.9067,-7.9061,-7.9055,-7.905,-7.9212,-7.9222,-7.9232,0,0,0,0,0,0,0,0,0,0,0,0,0,-7.8763,-7.8604,-7.8991,-7.8969,-7.8968,-7.9155,-7.9157,-7.916,-7.9068,-7.9061,-7.9054,-7.9048,-7.9209,-7.9221,-7.9234,-7.945,0,0,-7.9273,-7.9279,0,0,0,0,0,0,0,0,-7.8753,-7.8778,-7.897,-7.8971,-7.8971,-7.9083,-7.9077,-7.9257,-7.9069,-7.903,-7.9052,-7.9044,-7.9176,-7.9191,-7.9237,-7.9458,-7.9465,-7.9274,-7.9282,-7.9288,-7.9291,0,0,0,0,0,0,0,-7.8742,-7.877,-7.9056,-7.8973,-7.8973,-7.8949,-7.8965,-7.911,-7.9139,-7.9033,-7.9026,-7.9047,-7.9175,-7.9225,-7.924,-7.9467,-7.9274,-7.9285,-7.9293,-7.9298,-7.9873,-7.988,0,0,0,0,0,0,-7.8732,-7.8761,-7.9051,-7.9061,-7.8843,-7.8962,-7.898,-7.9054,-7.9137,-7.9144,-7.9053,-7.9042,-7.9206,-7.9225,-7.9245,-7.9504,-7.9287,-7.9299,-7.9307,-7.9865,-7.9875,-7.9883,0,0,0,0,0,0,-7.8724,-7.8759,-7.9044,-7.891,-7.8944,-7.8976,-7.906,-7.9061,-7.911,-7.9153,-7.9157,-7.9099,-7.9201,-7.9227,-7.94,-7.9508,-7.9305,-7.9317,-7.9857,-7.9868,-7.9879,-8.0023,0,0,0,0,0,0,-7.8713,-7.8757,-7.8841,-7.8912,-7.8952,-7.9199,-7.9066,-7.9069,-7.9133,-7.9121,-7.9197,-7.9203,-7.9198,-7.9382,-7.9413,-7.9522,-7.9327,-7.9847,-7.9862,-7.9875,-8.0009,-8.0038,-8.0063,0,0,0,0,0,-7.8699,-7.8874,-7.8845,-7.8881,-7.9057,-7.9205,-7.9227,-7.922,-7.9143,-7.9226,-7.9253,-7.92,-7.9491,-7.94,-7.9435,-7.9549,-7.984,-7.9858,-7.9874,-7.9997,-8.0032,-8.0062,0,0,0,0,0,0,-7.8812,-7.8883,-7.8852,-7.9055,-7.9125,-7.9189,-7.9294,-7.9258,-7.935,-7.9334,-7.9319,-7.9337,-7.9517,-7.955,-7.9447,-7.9763,-7.9653,-7.9678,-7.9735,-7.9769,-7.9796,-7.9784,-7.9338,0,0,0,0,0,-7.8861,-7.8977,-7.9031,-7.9205,-7.9242,-7.9263,-7.9327,-7.9315,-7.9386,-7.9415,-7.9454,-7.9524,-7.9631,-7.9702,-7.9802,-8.0013,-8.0028,-8.0109,-8.0136,-8.0158,-8.018,-8.0293,-8.0329,-7.9939,-7.9938,-7.9938,0,0,-7.8963,-7.9015,-7.9089,-7.923,-7.9282,-7.9401,-7.9288,-7.9419,-7.9506,-7.9434,-7.96,-7.9632,-7.9708,-7.9901,-7.9988,-7.9934,-8.0291,-8.018,-8.0197,-8.0207,-8.0314,-8.0351,-8.0384,-7.995,-7.9948,-7.9946,0,0,-7.9209,-7.9261,-7.9411,-7.9467,-7.9549,-7.9561,-7.9598,-7.9668,-7.9687,-7.9854,-7.9802,-7.9905,-8.009,-8.0146,-8.0199,-8.0467,-8.0421,-8.05,-8.0641,-8.0752,-8.0783,-8.081,-8.0905,-8.0939,-8.0521,-8.0522,-8.0522,0,-7.9324,-7.9503,-7.9493,-7.9628,-7.9691,-7.9633,-7.9784,-7.9838,-7.9948,-7.9992,-7.9931,-8.0162,-8.0209,-8.0414,-8.048,-8.0525,-8.0564,-8.0491,-8.0779,-8.0807,-8.0832,-8.0922,-8.0958,-8.0531,-8.053,-8.0529,-8.0528,0,-7.964,-7.9765,-7.9877,-7.9987,-8.0062,-8.0204,-8.0215,-8.0292,-8.0273,-8.0292,-8.0462,-8.0517,-8.0628,-8.0675,-8.0658,-8.0878,-8.0842,-8.0781,-8.067,-8.0878,-8.0963,-8.0998,-8.0544,-8.054,-8.0538,-8.0535,0,0,-7.9962,-8.0065,-8.0106,-8.0155,-8.0242,-8.0337,-8.0476,-8.0586,-8.0653,-8.073,-8.0846,-8.1004,-8.0948,-8.1008,-8.0996,-8.1093,-8.1301,-8.1019,-8.1021,-8.107,-8.1547,-8.1593,-8.1633,-8.1272,-8.1278,-8.1284,-8.154,0,-8.0213,-8.0459,-8.0454,-8.0681,-8.0796,-8.0742,-8.0863,-8.0929,-8.095,-8.1048,-8.107,-8.1183,-8.11,-8.1136,-8.123,-8.1256,-8.1397,-8.1238,-8.1378,-8.1383,-8.1361,-8.1677,-8.1726,-8.1966,-8.1573,-8.1579,-8.1583,0,-8.0539,-8.063,-8.0869,-8.0939,-8.0987,-8.1096,-8.1196,-8.1292,-8.1364,-8.1372,-8.1441,-8.1414,-8.1553,-8.144,-8.1631,-8.1523,-8.158,-8.1602,-8.161,-8.1623,-8.1495,-8.1698,-8.2042,-8.2078,-8.1635,-8.1631,-8.1627,0,-8.0749,-8.0931,-8.1098,-8.1141,-8.1227,-8.1305,-8.1344,-8.1409,-8.1476,-8.1563,-8.1606,-8.1707,-8.1763,-8.1842,-8.1842,-8.1759,-8.2036,-8.1922,-8.2045,-8.2046,-8.2106,-8.2102,-8.2464,-8.2143,-8.2143,-8.2142,-8.2141,0,-8.103,-8.1179,-8.1193,-8.1296,-8.146,-8.1453,-8.1615,-8.1646,-8.1705,-8.1811,-8.177,-8.1871,-8.1866,-8.1967,-8.1968,-8.2126,-8.2151,-8.2161,-8.2159,-8.2165,-8.2164,-8.2201,-8.2185,-8.2152,-8.2149,-8.2148,-8.2146,0,-8.1293,-8.1309,-8.1487,-8.1554,-8.1574,-8.1692,-8.1748,-8.1845,-8.1862,-8.1997,-8.2028,-8.2055,-8.2172,-8.2181,-8.2316,-8.2316,-8.2508,-8.2488,-8.2485,-8.2481,-8.2604,-8.2592,-8.3003,-8.3056,-8.2701,-8.2704,-8.2707,0,-8.1471,-8.1585,-8.1664,-8.1733,-8.1777,-8.1889,-8.1957,-8.1953,-8.2026,-8.2117,-8.2202,-8.2316,-8.2406,-8.2596,-8.2626,-8.2729,-8.2711,-8.2847,-8.2726,-8.2728,-8.2713,-8.2706,-8.2717,-8.2871,-8.2875,-8.2878,-8.2881,0,-8.1786,-8.1788,-8.1889,-8.1994,-8.2076,-8.2158,-8.2233,-8.2292,-8.2297,-8.238,-8.25,-8.2571,-8.2709,-8.2822,-8.2923,-8.296,-8.2922,-8.2919,-8.2953,-8.2959,-8.2953,-8.2958,-8.2549,-8.2909,-8.2906,-8.2904,-8.2903,-8.2902,-8.2012,-8.211,-8.2181,-8.2295,-8.2352,-8.2424,-8.2518,-8.2548,-8.2649,-8.2762,-8.2753,-8.2886,-8.2955,-8.3086,-8.3132,-8.3234,-8.3188,-8.3237,-8.325,-8.3262,-8.3275,-8.2937,-8.3253,-8.3252,-8.3251,-8.325,-8.325,0,-8.2324,-8.2368,-8.2472,-8.258,-8.2669,-8.2627,-8.2708,-8.2785,-8.2904,-8.2972,-8.3062,-8.32,-8.3309,-8.3349,-8.3454,-8.3529,-8.3514,-8.3557,-8.3551,-8.356,-8.331,-8.327,-8.3567,-8.3567,-8.3567,-8.3567,-8.3567,-8.3567,-8.2497,-8.2661,-8.2672,-8.2863,-8.2905,-8.3036,-8.3087,-8.3152,-8.3206,-8.3363,-8.3454,-8.348,-8.3536,-8.3646,-8.3743,-8.3752,-8.3792,-8.3843,-8.3844,-8.361,-8.3578,-8.3547,-8.351,-8.3852,-8.3853,-8.4086,-8.4088,-8.4089]}]]